weather.gov     
National Weather Service

Terminal Aerodrome Forecast
NWS Homepage
This page is being discontinued on March 12, 2014.
The same data is available at this site. Please update your bookmarks.
Thank you, and we apologize for the inconvenience.
Please send an email to SR-SRH.Webmaster@noaa.gov with any concerns.


Current Version
Previous Version:    01  02  03  04  05  06  07  08  09  10  11  12  13  14  15  16  17  18  19  20  21  22  23  24  25  
[Printable]
411
FTUS44 KOUN 221740
TAFSPS
TAF
KSPS 221740Z 2218/2318 34015G25KT P6SM BKN120
     FM230000 VRB04KT P6SM SCT150 SCT250
     FM231100 33010KT P6SM BKN150
     FM231600 34015G20KT P6SM SCT150=




411
FTUS44 KOUN 221740
TAFSPS
TAF
KSPS 221740Z 2218/2318 34015G25KT P6SM BKN120
     FM230000 VRB04KT P6SM SCT150 SCT250
     FM231100 33010KT P6SM BKN150
     FM231600 34015G20KT P6SM SCT150=


U.S. Dept. of Commerce
NOAA National Weather Service
1325 East West Highway
Silver Spring, MD 20910
E-mail: w-nws.webmaster@noaa.gov
Page last modified: May 16, 2007
NATIONAL WEATHER SERVICE: for Safety, for Work, for Fun - FOR LIFE